星链-1103 (STARLINK-1103 )

导读 | 豆包AI

STARLINK-1103是美国太空探索技术公司星链低轨互联网卫星星座中的一员,于2020年1月7日发射入轨。星链星座旨在为全球提供覆盖偏远地区的高速互联网服务,该卫星承担数据传输与星座组网功能,是星链早期部署批次中推进全球网络覆盖建设的重要组成部分。

基本信息
目录编号:
44921
目录名称:
STARLINK-1103
国际标识:
2020-001H
轨道中心:
EARTH
卫星名称:
星链-1103
卫星全名:
星链-1103 (STARLINK-1103 )
卫星状态:
已陨落 最后检测时间 2025-04-30
发射日期:
2020-01-07 UTC
国别 :
美国 (US)
星等 :
--
轨道信息
数据来源 国际轨道数据
星历时间: 2025-04-30T03:51:21+0800
轨道信息已过期318天
半长轴: 6541.164km
偏心率: 0.0009606
轨道倾角: 53.026°
近地点辐角 302.670°
升交点赤经 249.929°
平近点角 57.342°
近地点: 156.745km
远地点: 169.313km
周期: 87.749分钟
每日圈数: 16.410441
详细信息
固有亮度:
5
最大亮度:
2.5
卫星平台:
Starlink V1.0
覆盖范围:
全球
运营商:
太空探索技术公司
运营商所在国:
美国
制造商(研发单位):
太空探索技术公司
制造商所在国:
美国
使用方式:
暂无
卫星简介
星链(Starlink)计划是由太空探索技术公司(SpaceX)提出的一个巨型低轨卫星互联网星座项目,计划在2019年至2024年间在太空搭建由约1.2万颗卫星组成的“星链”网络,其中1584颗将部署在地球上空550千米处的近地轨道,并从2020年开始工作。该卫星仍在工作。